STARLINK-1740

Last updated on Fri Nov 06 2020 00:02:03 GMT+0000 (Coordinated Universal Time)

1 46566U 20070AL 20310.83334491 .00073068 00000-0 79755-3 0 9997 2 46566 53.0027 292.9357 0001031 75.4708 25.7832 15.62723953 5273

Satellite not in orbit

STARLINK-1740